LA1HSA-13 Weather Reports


Display with metric or nautical units.
time (UTC)temp
F
wind
direction
speed
MPH
gust
MPH
rain 1hr
in
rain 24hr
in
rain mn
in
humidity
%
barometer
mb
20260507191003 50 0 0.0 2.0 0.00 0.00 0.00 35 1018.0
20260507190004 52 247 1.0 2.0 0.00 0.00 0.00 35 1017.8
20260507185003 53 239 1.0 4.0 0.00 0.00 0.00 34 1018.0
20260507184003 54 0 0.0 2.0 0.00 0.00 0.00 32 1017.9
20260507183003 55 0 0.0 2.0 0.00 0.00 0.00 33 1017.8
20260507182003 55 246 1.0 4.0 0.00 0.00 0.00 30 1017.7
20260507181003 56 251 1.0 2.0 0.00 0.00 0.00 29 1017.4
20260507180003 56 237 1.0 4.0 0.00 0.00 0.00 29 1017.4
20260507175003 56 258 2.0 4.0 0.00 0.00 0.00 26 1017.1
20260507174003 57 276 1.0 4.0 0.00 0.00 0.00 25 1017.3
20260507173004 58 0 0.0 4.0 0.00 0.00 0.00 27 1017.3
20260507172003 57 238 2.0 4.0 0.00 0.00 0.00 27 1017.1
20260507171003 57 251 2.0 4.0 0.00 0.00 0.00 26 1017.1
20260507170004 57 0 0.0 4.0 0.00 0.00 0.00 26 1017.2
20260507165003 59 38 2.0 4.0 0.00 0.00 0.00 27 1017.1
20260507164003 59 279 1.0 6.0 0.00 0.00 0.00 25 1017.0
20260507163003 58 317 2.0 4.0 0.00 0.00 0.00 26 1017.0
20260507162003 58 11 2.0 4.0 0.00 0.00 0.00 27 1017.1
20260507161003 58 62 2.0 6.0 0.00 0.00 0.00 27 1017.2
20260507160003 59 308 2.0 4.0 0.00 0.00 0.00 27 1017.0
20260507155003 59 324 1.0 4.0 0.00 0.00 0.00 27 1016.9
20260507154003 59 307 2.0 6.0 0.00 0.00 0.00 26 1016.8
20260507153003 58 254 3.0 6.0 0.00 0.00 0.00 27 1016.9
20260507152003 58 2 2.0 6.0 0.00 0.00 0.00 27 1016.8
20260507151003 58 336 2.0 6.0 0.00 0.00 0.00 27 1016.9
20260507150003 58 17 1.0 6.0 0.00 0.00 0.00 29 1016.8
20260507145003 58 342 2.0 6.0 0.00 0.00 0.00 28 1016.9
20260507144003 58 353 2.0 8.0 0.00 0.00 0.00 29 1016.7
20260507143003 58 16 2.0 9.0 0.00 0.00 0.00 29 1016.9
20260507142003 58 346 4.0 7.0 0.00 0.00 0.00 29 1016.9
20260507141003 57 81 1.0 7.0 0.00 0.00 0.00 30 1016.7
20260507140003 58 311 2.0 4.0 0.00 0.00 0.00 30 1016.8
20260507135003 57 14 2.0 7.0 0.00 0.00 0.00 30 1016.7
20260507134003 58 340 2.0 6.0 0.00 0.00 0.00 32 1016.7
20260507133003 57 276 2.0 11.0 0.00 0.00 0.00 33 1017.0
20260507132003 57 316 4.0 11.0 0.00 0.00 0.00 30 1016.8
20260507131003 57 243 4.0 9.0 0.00 0.00 0.00 31 1016.9
20260507130004 57 101 2.0 4.0 0.00 0.00 0.00 33 1016.9
20260507125003 56 64 1.0 4.0 0.00 0.00 0.00 33 1017.0
20260507124003 55 184 2.0 4.0 0.00 0.00 0.00 33 1017.0
20260507123003 57 242 1.0 4.0 0.00 0.00 0.00 36 1016.9
20260507122004 57 0 0.0 4.0 0.00 0.00 0.00 34 1016.8
20260507121003 56 0 0.0 4.0 0.00 0.00 0.00 34 1016.9
20260507120004 56 205 2.0 7.0 0.00 0.00 0.00 34 1016.8
20260507115003 54 240 3.0 8.0 0.00 0.00 0.00 33 1017.0
20260507114003 54 239 3.0 7.0 0.00 0.00 0.00 34 1016.9
20260507113004 55 251 2.0 4.0 0.00 0.00 0.00 33 1016.7
20260507112003 55 355 2.0 4.0 0.00 0.00 0.00 34 1016.9
20260507111003 53 151 4.0 7.0 0.00 0.00 0.00 36 1017.0
20260507110004 55 0 0.0 4.0 0.00 0.00 0.00 39 1016.7
20260507105003 53 259 2.0 6.0 0.00 0.00 0.00 37 1017.0
20260507104003 53 260 3.0 7.0 0.00 0.00 0.00 36 1016.9
20260507103003 54 252 2.0 7.0 0.00 0.00 0.00 35 1016.8
20260507102003 54 261 1.0 6.0 0.00 0.00 0.00 37 1016.6
20260507101003 53 210 1.0 4.0 0.00 0.00 0.00 37 1016.6
20260507100003 52 168 2.0 4.0 0.00 0.00 0.00 37 1016.5
20260507095003 53 224 2.0 4.0 0.00 0.00 0.00 37 1016.5
20260507094003 52 171 1.0 4.0 0.00 0.00 0.00 38 1016.6
20260507093003 52 167 1.0 4.0 0.00 0.00 0.00 37 1016.9
20260507092003 50 40 1.0 4.0 0.00 0.00 0.00 39 1016.5
20260507091003 50 58 2.0 4.0 0.00 0.00 0.00 40 1016.8
20260507090004 50 61 2.0 4.0 0.00 0.00 0.00 41 1017.0
20260507085003 50 157 2.0 6.0 0.00 0.00 0.00 40 1016.8
20260507084003 51 243 2.0 6.0 0.00 0.00 0.00 44 1016.8
20260507083004 50 232 2.0 4.0 0.00 0.00 0.00 43 1016.4
20260507082003 50 293 2.0 4.0 0.00 0.00 0.00 42 1016.7
20260507081003 49 231 2.0 6.0 0.00 0.00 0.00 46 1016.6
20260507080004 48 215 2.0 6.0 0.00 0.00 0.00 46 1016.5
20260507075003 48 210 2.0 7.0 0.00 0.00 0.00 46 1016.4
20260507074003 48 207 2.0 6.0 0.00 0.00 0.00 47 1016.7
20260507073003 47 202 2.0 4.0 0.00 0.00 0.00 48 1016.5
20260507072003 48 204 2.0 4.0 0.00 0.00 0.00 48 1016.3
20260507071003 46 203 1.0 4.0 0.00 0.00 0.00 49 1016.2
20260507070005 46 184 1.0 2.0 0.00 0.00 0.00 51 1016.2
20260507065003 45 0 0.0 4.0 0.00 0.00 0.00 50 1016.2
20260507064003 45 0 0.0 2.0 0.00 0.00 0.00 50 1016.3
20260507063003 44 0 0.0 2.0 0.00 0.00 0.00 54 1016.2
20260507062003 42 145 1.0 2.0 0.00 0.00 0.00 54 1016.1
20260507061003 40 118 1.0 2.0 0.00 0.00 0.00 57 1016.0
20260507060003 39 67 1.0 2.0 0.00 0.00 0.00 61 1016.1
20260507055003 37 0 0.0 2.0 0.00 0.00 0.00 63 1016.2
20260507054003 37 0 0.0 2.0 0.00 0.00 0.00 64 1015.7
20260507053004 36 0 0.0 0.0 0.00 0.00 0.00 65 1015.7
20260507052003 35 0 0.0 0.0 0.00 0.00 0.00 65 1015.7
20260507051003 35 0 0.0 0.0 0.00 0.00 0.00 67 1015.6
20260507050003 35 0 0.0 0.0 0.00 0.00 0.00 67 1015.9
20260507045003 35 0 0.0 0.0 0.00 0.00 0.00 66 1015.4
20260507044003 34 0 0.0 0.0 0.00 0.00 0.00 66 1015.4
20260507043003 33 0 0.0 0.0 0.00 0.00 0.00 69 1015.2
20260507042003 32 0 0.0 0.0 0.00 0.00 0.00 70 1015.3
20260507041003 31 0 0.0 0.0 0.00 0.00 0.00 71 1015.2
20260507040003 30 0 0.0 0.0 0.00 0.00 0.00 74 1015.3
20260507035003 30 0 0.0 0.0 0.00 0.00 0.00 73 1015.0
20260507034003 30 0 0.0 0.0 0.00 0.00 0.00 74 1014.8
20260507033003 30 0 0.0 0.0 0.00 0.00 0.00 75 1015.1
20260507032003 29 0 0.0 0.0 0.00 0.00 0.00 75 1015.0
20260507031003 30 0 0.0 0.0 0.00 0.00 0.00 74 1014.8
20260507030003 30 0 0.0 0.0 0.00 0.00 0.00 72 1014.9
20260507025003 31 0 0.0 0.0 0.00 0.00 0.00 69 1014.8
20260507024003 32 0 0.0 0.0 0.00 0.00 0.00 68 1014.5
20260507023003 32 0 0.0 0.0 0.00 0.00 0.00 69 1014.6
20260507022003 31 0 0.0 0.0 0.00 0.00 0.00 69 1014.4
20260507021003 32 0 0.0 0.0 0.00 0.00 0.00 67 1014.5
20260507020003 32 0 0.0 0.0 0.00 0.00 0.00 67 1014.6
20260507015003 32 0 0.0 0.0 0.00 0.00 0.00 67 1014.4
20260507014003 32 0 0.0 0.0 0.00 0.00 0.00 67 1014.2
20260507013003 32 0 0.0 0.0 0.00 0.00 0.00 66 1014.2
20260507012003 32 0 0.0 0.0 0.00 0.00 0.00 67 1014.4
20260507011003 33 0 0.0 0.0 0.00 0.00 0.00 65 1014.1
20260507010003 34 0 0.0 0.0 0.00 0.00 0.00 63 1013.9
20260507005003 34 0 0.0 0.0 0.00 0.00 0.00 62 1014.0
20260507004003 36 0 0.0 2.0 0.00 0.00 0.00 59 1013.6
20260507003003 36 58 1.0 4.0 0.00 0.00 0.00 56 1013.8
20260507002003 36 0 0.0 4.0 0.00 0.00 0.00 57 1013.6
20260507001003 36 60 2.0 4.0 0.00 0.00 0.00 58 1013.5
20260507000003 36 50 2.0 4.0 0.00 0.00 0.00 57 1013.6
20260506235003 36 65 2.0 4.0 0.00 0.00 0.00 57 1013.3
20260506234003 36 0 0.0 2.0 0.00 0.00 0.00 58 1013.7
20260506233003 38 0 0.0 2.0 0.00 0.00 0.00 53 1013.5
20260506232003 38 0 0.0 4.0 0.00 0.00 0.00 50 1013.4
20260506231003 39 70 2.0 4.0 0.00 0.00 0.00 49 1013.5
20260506230004 39 67 1.0 4.0 0.00 0.00 0.00 49 1013.2
20260506225003 39 0 0.0 2.0 0.00 0.00 0.00 50 1013.2
20260506224003 37 0 0.0 2.0 0.00 0.00 0.00 55 1013.2
20260506223003 38 67 1.0 2.0 0.00 0.00 0.00 53 1013.3
20260506222003 39 67 1.0 4.0 0.00 0.00 0.00 50 1013.1
20260506221003 41 88 2.0 4.0 0.00 0.00 0.00 45 1012.9
20260506220022 42 90 1.0 4.0 0.00 0.00 0.00 44 1012.9
20260506215003 41 85 1.0 4.0 0.00 0.00 0.00 44 1012.6
20260506214003 42 78 2.0 7.0 0.00 0.00 0.00 44 1012.7
20260506213003 42 76 3.0 7.0 0.00 0.00 0.00 43 1012.8
20260506212003 42 80 1.0 6.0 0.00 0.00 0.00 44 1012.6
20260506211003 41 0 0.0 4.0 0.00 0.00 0.00 45 1012.5
20260506210004 42 90 1.0 4.0 0.00 0.00 0.00 46 1012.3
20260506205003 41 0 0.0 4.0 0.00 0.00 0.00 47 1012.2
20260506204003 42 0 0.0 2.0 0.00 0.00 0.00 46 1012.3
20260506203003 43 92 1.0 4.0 0.00 0.00 0.00 45 1012.3
20260506202003 44 112 1.0 2.0 0.00 0.00 0.00 44 1012.2
20260506201003 45 101 1.0 2.0 0.00 0.00 0.00 41 1011.8
20260506200003 45 0 0.0 4.0 0.00 0.00 0.00 41 1011.8
20260506195003 46 72 2.0 6.0 0.00 0.00 0.00 39 1011.8
20260506194003 47 45 2.0 4.0 0.00 0.00 0.00 43 1011.8
20260506193003 47 38 1.0 4.0 0.00 0.00 0.00 41 1011.8
20260506192003 47 57 1.0 2.0 0.00 0.00 0.00 39 1011.5